Tracking 19249 objects as of 16-Oct-2018
HD Live streaming from Space Station
objects crossing your sky now

AEROCUBE 2

Track AEROCUBE 2 now!
10-day predictions
AEROCUBE 2 is classified as:


NORAD ID: 31133
Int'l Code: 2007-012R
Perigee: 645.5 km
Apogee: 761.4 km
Inclination: 98.1 °
Period: 98.7 minutes
Semi major axis: 7074 km
RCS: 0.0127 m2 (small)
Launch date: April 17, 2007
Source: United States (US)
Launch site: TYURATAM MISSILE AND SPACE COMPLEX (TTMTR)

Uplink (MHz):
Downlink (MHz): 400.038
Beacon (MHz):
Mode: 1200bps AFSK
Call sign:
Status: Inactive

aabbcc
Your satellite tracking list
Your tracking list is empty




NASA's NSSDC Master Catalog

Two Line Element Set (TLE):
1 31133U 07012R   18287.84248041  .00000184  00000-0  47339-4 0  9991
2 31133  98.0907 234.5749 0081956  64.9992 295.9692 14.59032618611108
Source of the keplerian elements: AFSPC